Wind_Speed
38 38 39 39 39 39 39 39 40 41 41 41 41 42 42 42 43 43 44 45 46 46 47 48 48 48 47 47 46 45 44 43 44 44 44 44 42 42
38 38 39 39 39 39 39 40 40 41 40 40 41 41 41 41 42 43 44 45 46 47 48 48 48 47 47 46 45 44 44 42 43 43 42 41 40 40
39 39 39 39 39 38 39 40 40 39 39 40 40 40 41 41 42 43 44 45 46 47 47 47 47 46 45 44 43 43 43 43 42 42 40 39 39 39
39 39 39 39 39 39 39 39 39 39 39 39 39 40 40 41 41 43 44 45 46 47 46 46 45 43 43 42 43 43 43 43 42 41 40 40 39 38
39 39 39 38 38 39 39 39 39 39 39 39 39 40 41 41 42 42 44 45 45 45 45 45 43 42 42 42 42 42 43 42 41 40 40 39 38 38
39 39 38 38 38 38 38 39 39 39 39 40 40 40 41 41 43 43 44 45 45 45 44 43 42 42 41 41 41 42 41 41 40 39 38 38 37 37
39 38 37 37 37 37 37 38 39 39 39 39 39 40 40 41 42 43 43 44 45 44 43 41 41 41 41 41 42 41 40 39 38 38 36 35 35 35
38 38 37 37 37 37 38 38 39 39 39 39 39 40 40 42 42 43 43 43 42 42 41 40 40 41 41 41 41 40 39 38 37 36 34 33 33 33
37 37 37 36 36 37 37 38 38 38 38 39 39 39 40 41 41 41 42 42 41 39 39 39 40 41 41 41 40 38 37 35 34 33 32 31 31 30
37 37 37 36 36 37 37 37 37 36 37 38 38 39 40 40 40 41 40 40 39 39 39 39 39 39 40 39 37 35 34 32 31 30 29 29 28 28
37 37 37 37 37 37 37 37 36 36 37 37 38 39 39 40 40 39 39 39 39 38 39 39 38 37 36 35 34 32 31 30 29 28 28 28 28 27
38 38 38 37 37 36 36 36 36 36 36 36 37 37 38 38 38 38 39 39 38 37 37 36 35 33 31 30 30 29 29 28 27 27 27 26 25 24
37 37 37 36 35 35 35 35 34 34 34 34 35 35 36 36 36 37 37 36 36 35 34 33 31 30 29 27 27 27 27 26 25 25 25 24 23 22
35 36 36 35 34 34 34 33 33 33 33 33 33 33 34 35 35 36 35 34 33 32 31 29 28 27 26 25 25 25 25 24 24 24 23 22 21 21
35 34 34 33 33 33 33 32 31 32 32 31 31 32 33 33 34 33 32 31 31 29 27 26 25 25 25 25 24 24 23 22 22 22 20 18 18 18
34 33 33 32 32 31 30 30 30 30 31 30 31 31 32 32 32 31 29 28 27 25 25 25 24 23 23 23 22 21 21 20 21 20 19 17 17 17
33 33 32 31 31 29 28 28 28 29 29 29 30 29 30 30 29 28 27 25 24 23 23 23 22 21 21 21 20 19 18 18 19 18 17 16 16 16
31 31 30 29 29 28 28 27 28 28 28 28 28 28 28 27 27 25 24 23 22 22 22 20 18 19 19 19 18 17 17 17 17 16 16 16 15 14
28 28 27 27 27 27 27 27 27 27 26 25 25 25 26 25 24 23 22 21 21 20 19 17 17 17 17 16 16 16 16 15 15 14 14 14 14 13
26 26 26 25 25 25 26 26 25 24 23 24 24 24 23 23 22 21 21 20 19 18 16 16 16 16 15 15 14 14 14 14 13 13 13 13 13 13
25 25 24 24 24 24 24 23 23 22 22 23 22 22 21 21 20 20 19 18 17 15 14 14 15 15 14 13 12 13 12 12 12 12 13 12 12 11
24 23 23 23 23 23 22 21 21 21 21 21 20 20 20 20 19 18 17 16 15 14 13 13 13 13 12 12 11 11 10 10 11 11 12 12 11 11
23 23 23 23 23 22 21 20 20 20 20 20 20 19 19 19 18 17 16 15 14 12 12 11 11 11 10 10 9 9 8 9 10 10 10 11 11 12
Wind_Direction
271 272 274 275 277 279 281 283 285 287 289 290 292 294 296 297 299 301 303 304 304 305 305 305 306 305 305 305 305 305 305 304 303 304 302 300 297 296
270 272 274 276 277 278 280 283 286 288 290 291 293 295 295 297 300 302 304 304 304 305 305 306 306 306 306 305 306 306 306 306 305 304 303 302 299 298
271 273 274 276 277 279 281 284 287 289 291 293 293 295 296 298 301 302 303 304 304 306 307 307 307 307 307 307 307 307 307 307 307 305 304 302 300 299
271 273 275 277 279 280 282 284 286 289 291 293 293 295 296 299 302 303 303 304 305 307 307 308 308 307 308 307 307 307 308 308 307 305 304 304 302 300
272 274 276 277 279 281 281 283 286 289 291 293 294 294 296 299 302 302 304 305 306 307 307 307 307 307 308 308 309 309 309 308 307 305 304 303 302 301
273 275 275 276 278 279 281 283 286 290 292 294 294 295 296 299 301 302 304 305 305 307 307 306 306 307 308 308 309 310 310 309 307 306 305 304 302 301
272 274 274 274 275 278 281 285 287 290 292 294 294 295 297 299 301 302 304 304 305 307 306 306 307 308 308 309 310 311 310 309 309 309 308 306 304 303
271 271 272 274 276 278 281 285 288 290 292 293 294 296 298 300 302 303 304 305 306 306 306 306 307 308 310 311 311 311 310 310 310 310 309 308 307 305
269 269 271 273 276 279 282 284 286 290 291 294 296 298 299 300 302 304 306 307 308 307 307 307 307 309 310 311 312 311 310 310 310 310 309 309 310 309
269 269 270 273 276 278 281 283 286 290 292 294 296 299 301 303 304 306 307 308 309 308 307 307 308 309 311 311 312 311 311 310 310 311 311 311 311 311
270 271 272 274 276 278 281 284 287 289 292 293 297 300 302 304 306 307 308 308 308 308 308 308 309 310 311 311 311 312 313 311 312 312 312 312 313 312
269 271 272 274 276 278 281 284 286 289 292 294 296 299 303 305 306 307 309 309 309 309 309 310 311 312 312 312 312 313 314 314 314 314 315 315 314 314
270 271 272 273 275 277 280 283 285 289 292 293 296 300 303 305 306 308 309 310 310 311 311 312 314 315 315 315 314 314 315 316 317 318 319 319 319 319
270 271 271 272 273 276 279 282 285 287 289 292 296 301 305 306 308 309 309 310 312 313 313 314 317 318 318 318 317 316 318 319 321 322 322 322 324 326
269 270 270 271 273 275 277 280 284 287 290 293 297 301 305 306 308 310 310 311 313 314 315 318 318 319 320 320 319 319 321 323 325 327 327 326 328 331
268 269 269 270 272 273 275 278 283 287 291 294 298 301 305 307 309 310 310 311 312 314 316 319 320 321 323 322 322 324 325 328 331 333 334 335 337 337
267 268 268 268 269 271 273 278 282 286 291 296 299 302 305 307 308 309 309 309 311 314 316 318 320 322 324 325 327 329 331 334 336 338 341 342 344 347
265 265 264 265 267 269 273 278 282 286 290 295 300 303 306 307 307 307 307 308 310 312 315 317 319 322 325 326 327 331 334 336 339 342 345 349 352 355
263 262 262 263 266 270 273 278 283 287 290 294 298 303 306 306 306 307 307 308 309 312 313 315 319 323 326 327 329 332 336 338 341 345 348 352 358 4
258 259 260 262 266 270 274 279 284 286 289 292 297 301 304 306 307 308 307 307 309 312 313 316 320 324 327 330 333 335 338 342 347 351 354 357 3 10
256 257 259 262 266 270 273 278 282 285 289 291 293 297 301 305 307 308 307 306 308 310 312 316 319 323 327 331 335 339 343 349 354 358 1 6 12 16
255 257 259 263 267 270 274 276 279 284 287 288 290 294 298 304 306 305 304 304 306 308 311 314 317 321 326 331 336 340 347 355 1 6 12 18 22 25
255 257 261 264 268 271 274 274 277 281 284 286 289 292 296 300 301 300 299 299 301 305 309 314 318 322 328 333 338 346 356 5 10 15 20 24 30 36
Height
5713 5713 5713 5712 5710 5709 5707 5705 5703 5701 5699 5695 5691 5687 5682 5678 5673 5668 5663 5658 5651 5645 5639 5633 5626 5620 5613 5606 5600 5593 5587 5581 5575 5569 5563 5557 5552 5547
5704 5704 5703 5702 5701 5700 5698 5696 5693 5691 5689 5686 5682 5678 5673 5668 5663 5659 5653 5647 5641 5635 5629 5622 5616 5609 5602 5596 5589 5583 5577 5571 5565 5559 5553 5547 5542 5537
5694 5694 5694 5693 5692 5690 5689 5687 5684 5682 5680 5677 5673 5669 5664 5659 5654 5649 5643 5637 5631 5625 5618 5612 5605 5599 5592 5586 5580 5573 5567 5561 5555 5549 5543 5537 5532 5527
5685 5685 5684 5684 5683 5681 5679 5677 5675 5673 5670 5667 5663 5659 5655 5650 5645 5639 5633 5627 5621 5615 5608 5602 5595 5589 5583 5577 5571 5564 5558 5552 5545 5539 5533 5528 5523 5517
5676 5675 5675 5674 5673 5672 5670 5668 5666 5664 5661 5658 5654 5650 5645 5640 5635 5629 5623 5617 5611 5605 5598 5592 5585 5579 5574 5567 5561 5555 5549 5542 5536 5530 5524 5519 5513 5508
5666 5666 5665 5665 5664 5663 5661 5659 5657 5654 5651 5648 5645 5641 5636 5631 5626 5620 5615 5608 5602 5595 5588 5582 5576 5570 5565 5559 5553 5546 5539 5533 5526 5520 5515 5509 5504 5499
5656 5656 5656 5655 5654 5653 5652 5650 5647 5645 5642 5638 5635 5631 5627 5622 5617 5611 5605 5599 5593 5586 5579 5573 5567 5561 5555 5549 5543 5536 5530 5524 5517 5511 5506 5500 5495 5490
5646 5646 5646 5646 5645 5644 5642 5640 5638 5635 5632 5629 5626 5622 5617 5612 5607 5601 5595 5590 5585 5578 5570 5564 5558 5552 5545 5540 5533 5527 5521 5515 5509 5503 5497 5492 5487 5482
5637 5637 5637 5636 5636 5634 5633 5631 5628 5625 5623 5620 5616 5612 5608 5603 5598 5592 5585 5579 5574 5567 5562 5556 5549 5543 5536 5530 5524 5518 5512 5506 5500 5495 5490 5485 5480 5475
5627 5627 5627 5627 5626 5625 5623 5621 5619 5616 5613 5610 5607 5603 5598 5593 5588 5582 5576 5571 5564 5558 5552 5547 5541 5535 5528 5521 5515 5509 5504 5499 5493 5488 5483 5478 5473 5468
5618 5618 5618 5618 5617 5616 5614 5612 5610 5607 5604 5600 5597 5593 5588 5583 5578 5573 5568 5562 5557 5550 5544 5538 5533 5527 5521 5514 5508 5502 5497 5492 5487 5482 5477 5472 5467 5463
5608 5608 5608 5608 5607 5606 5604 5603 5600 5598 5595 5591 5588 5584 5579 5574 5569 5564 5559 5553 5547 5542 5536 5530 5525 5519 5515 5509 5502 5497 5492 5487 5482 5477 5471 5466 5462 5458
5598 5598 5598 5598 5597 5596 5595 5593 5591 5588 5585 5582 5579 5575 5571 5566 5561 5555 5550 5544 5539 5533 5528 5523 5518 5512 5507 5503 5498 5492 5487 5482 5477 5472 5467 5462 5458 5453
5588 5588 5588 5588 5588 5587 5585 5584 5582 5579 5577 5574 5570 5567 5563 5558 5553 5548 5542 5537 5531 5526 5521 5516 5511 5507 5502 5497 5493 5488 5483 5478 5473 5468 5463 5458 5454 5450
5578 5578 5579 5579 5578 5577 5576 5575 5573 5571 5568 5566 5563 5559 5555 5551 5546 5541 5535 5530 5525 5520 5515 5510 5506 5502 5498 5493 5489 5484 5480 5475 5470 5465 5460 5455 5452 5448
5569 5569 5569 5569 5569 5568 5567 5566 5565 5563 5561 5558 5555 5551 5547 5543 5539 5535 5530 5525 5520 5516 5511 5506 5502 5498 5494 5489 5485 5480 5476 5472 5467 5463 5458 5454 5450 5445
5559 5559 5560 5560 5560 5560 5560 5559 5557 5555 5553 5551 5547 5544 5541 5537 5533 5529 5525 5520 5516 5512 5508 5503 5499 5495 5491 5487 5483 5478 5474 5470 5466 5461 5457 5454 5449 5445
5550 5550 5551 5551 5552 5552 5552 5551 5550 5548 5546 5544 5541 5538 5534 5531 5527 5523 5520 5516 5512 5508 5505 5501 5497 5493 5489 5485 5481 5477 5473 5469 5465 5461 5457 5453 5449 5445
5541 5542 5543 5544 5544 5544 5544 5543 5542 5541 5539 5537 5534 5531 5528 5525 5522 5518 5515 5512 5508 5505 5501 5498 5494 5491 5487 5484 5480 5476 5472 5468 5464 5461 5457 5453 5449 5445
5533 5534 5535 5536 5537 5537 5537 5536 5535 5533 5532 5530 5528 5525 5523 5520 5517 5514 5511 5508 5505 5502 5498 5495 5492 5489 5485 5482 5479 5475 5471 5467 5464 5460 5457 5454 5450 5447
5526 5527 5528 5529 5530 5530 5529 5529 5528 5526 5525 5523 5521 5520 5517 5515 5512 5509 5507 5504 5501 5499 5496 5493 5490 5487 5483 5480 5478 5474 5471 5467 5464 5460 5457 5454 5451 5449
5519 5520 5521 5522 5523 5523 5522 5522 5521 5520 5519 5517 5516 5514 5512 5510 5508 5505 5503 5501 5499 5496 5494 5491 5488 5485 5483 5480 5477 5474 5471 5468 5465 5461 5458 5456 5453 5450
5512 5513 5514 5515 5516 5516 5515 5515 5514 5514 5512 5511 5510 5508 5507 5505 5503 5501 5500 5498 5496 5494 5491 5489 5487 5484 5482 5479 5476 5473 5471 5468 5466 5463 5461 5457 5455 5452